Time,TemperatureF,DewpointF,PressureIn,WindDirection,WindDirectionDegrees,WindSpeedMPH,WindSpeedGustMPH,Humidity,HourlyPrecipIn,Conditions,Clouds,dailyrainin,SolarRadiationWatts/m^2,SoftwareType,DateUTC
2013-08-28 10:24:00,72.0,54.0,30.25,SSE,157,11.0,16.0,52,-99.99,,,-99.99,674.000000,,2013-08-28 17:24:00,
2013-08-28 10:30:00,76.0,51.0,30.25,SE,141,11.0,17.0,41,-99.99,,,-99.99,923.000000,,2013-08-28 17:30:00,
2013-08-28 11:12:00,76.0,51.0,30.25,SE,141,11.0,17.0,41,-99.99,,,-99.99,923.000000,,2013-08-28 18:12:00,
2013-08-28 11:21:00,76.0,51.0,30.25,SE,141,11.0,17.0,41,-99.99,,,-99.99,923.000000,,2013-08-28 18:21:00,
2013-08-28 12:21:00,79.0,48.0,30.23,SE,130,16.0,24.0,34,-99.99,,,-99.99,978.000000,,2013-08-28 19:21:00,
2013-08-28 12:42:00,80.0,48.0,30.22,ESE,122,15.0,22.0,32,-99.99,,,-99.99,1032.000000,,2013-08-28 19:42:00,
2013-08-28 13:12:00,81.0,45.0,30.21,ESE,120,16.0,26.0,29,-99.99,,,-99.99,1023.000000,,2013-08-28 20:12:00,
2013-08-28 13:23:00,81.0,45.0,30.21,SE,131,17.0,23.0,29,-99.99,,,-99.99,1056.000000,,2013-08-28 20:23:00,
2013-08-28 13:43:00,81.0,45.0,30.21,SE,128,17.0,27.0,28,-99.99,,,-99.99,1118.000000,,2013-08-28 20:43:00,
2013-08-28 14:11:00,81.0,44.0,30.21,ESE,122,16.0,26.0,27,-99.99,,,-99.99,862.000000,,2013-08-28 21:11:00,
2013-08-28 14:22:00,81.0,46.0,30.20,SE,129,14.0,23.0,30,-99.99,,,-99.99,735.000000,,2013-08-28 21:22:00,
2013-08-28 14:30:00,80.0,45.0,30.19,SE,129,13.0,19.0,29,-99.99,,,-99.99,380.000000,,2013-08-28 21:30:00,
2013-08-28 14:44:00,81.0,45.0,30.19,SE,146,14.0,21.0,28,-99.99,,,-99.99,880.000000,,2013-08-28 21:44:00,
2013-08-28 15:10:00,78.0,43.0,30.20,SW,218,18.0,25.0,28,-99.99,,,-99.99,272.000000,,2013-08-28 22:10:00,
2013-08-28 15:25:00,80.0,45.0,30.19,SE,129,13.0,19.0,29,-99.99,,,-99.99,380.000000,,2013-08-28 22:25:00,
2013-08-28 16:42:00,81.0,43.0,30.18,SSW,212,9.0,17.0,26,-99.99,,,-99.99,167.000000,,2013-08-28 23:42:00,
2013-08-28 17:11:00,79.0,45.0,30.19,SSE,160,14.0,28.0,30,-99.99,,,-99.99,30.000000,,2013-08-29 00:11:00,
2013-08-28 18:22:00,73.0,56.0,30.22,SE,135,5.0,7.0,57,-99.99,,,-99.99,132.000000,,2013-08-29 01:22:00,
2013-08-28 18:42:00,72.0,53.0,30.22,SE,132,14.0,22.0,51,-99.99,,,-99.99,261.000000,,2013-08-29 01:42:00,
2013-08-28 19:11:00,72.0,52.0,30.21,South,180,11.0,16.0,50,-99.99,,,-99.99,137.000000,,2013-08-29 02:11:00,
2013-08-28 19:20:00,68.0,53.0,30.22,South,191,11.0,14.0,59,-99.99,,,-99.99,7.000000,,2013-08-29 02:20:00,
2013-08-28 20:11:00,68.0,53.0,30.22,South,191,11.0,14.0,59,-99.99,,,-99.99,7.000000,,2013-08-29 03:11:00,
2013-08-28 20:45:00,66.0,53.0,30.23,South,171,7.0,10.0,63,-99.99,,,-99.99,0.000000,,2013-08-29 03:45:00,
2013-08-28 21:28:00,65.0,52.0,30.24,SSE,167,10.0,16.0,62,-99.99,,,-99.99,0.000000,,2013-08-29 04:28:00,
2013-08-28 21:45:00,66.0,53.0,30.26,South,170,8.0,14.0,63,-99.99,,,-99.99,0.000000,,2013-08-29 04:45:00,
2013-08-28 22:14:00,65.0,56.0,30.27,SSW,198,9.0,16.0,72,-99.99,,,-99.99,0.000000,,2013-08-29 05:14:00,
2013-08-28 22:40:00,64.0,54.0,30.28,SE,137,6.0,9.0,69,-99.99,,,-99.99,0.000000,,2013-08-29 05:40:00,
2013-08-28 22:42:00,68.0,54.0,30.28,SSE,162,7.0,12.0,62,-99.99,,,-99.99,0.000000,,2013-08-29 05:42:00,
2013-08-28 23:22:00,65.0,54.0,30.28,ESE,112,5.0,8.0,67,-99.99,,,-99.99,0.000000,,2013-08-29 06:22:00,